User: anonymous   Login
Location: Unspecified
(0.0000°N, 0.0000°E)
Time: 14:44:26
(UTC+00:00)
Language:

UME 1 - Orbit

View from above orbital plane
View from above orbital plane
View from above satellite
View from above satellite

Ground track
Ground track

The orbit data is extracted from the following two-line orbital elements,

1  8709U 76019A   17206.16755483 +.00000002 +00000-0 +59725-4 0  9996
2  8709 069.6741 065.1910 0012196 219.4638 279.1165 13.71391041071866
Epoch (UTC): 25 July 2017 04:01:16
Eccentricity: 0.0012196
inclination: 69.6741°
perigee height: 985 km
apogee height: 1003 km
right ascension of ascending node: 65.1910°
argument of perigee: 219.4638°
revolutions per day: 13.71391041
mean anomaly at epoch: 279.1165°
orbit number at epoch: 7186

The dashed part of the orbit path shows where the satellite is in the earth's shadow,  

DLR